Погода в Ильиной Горе

Россия / Новгородская область     57°34′52″N   32°39′09″E
темп.,
°C
ветер,
м/с
пор.,
м/с
влажн.,
%
обл.,
%
осадки,
мм/ч
давл.,
гПа
погр.,
м
17 мая, вт
вт1700:00+5зсз31098100 0.1 1010331
03:00+4зсз31197100 0.1 1010363
06:00+3зсз3797100 0.0 1010225
09:00+5сз3794100 0.0 1010453
12:00+7сз4790100 0.3 1010700
15:00+8с587799 0.6 10101067
18:00+6с5988100 0.1 1012780
21:00+4ссз51196100 0.1 1013550
18 мая, ср
ср1800:00+4с4992100 0.0 1015607
03:00+3ссз4894100 0.0 1016494
06:00+3ссз4891100 0.0 1017443
09:00+6ссз5777100 0.0 1019723
12:00+9сз5861100 0.0 10191343
15:00+11сз684662 0.0 10181709
18:00+12сз495121 0.0 10171774
21:00+7з387859 0.0 1017187
19 мая, чт
чт1900:00+5зюз313815 0.0 1017336
03:00+5з312845 0.0 1017455
06:00+4зсз3987100 0.0 1017379
09:00+7зсз3578100 0.0 1018332
12:00+11сз4757100 0.1 10181817
15:00+13сз573859 0.2 10182190
18:00+13сз47445 0.0 10181922
21:00+6ссз22697 0.0 101913
20 мая, пт
пт2000:00+5всв2267100 0.0 102022
03:00+4в2266100 0.0 102042
06:00+4вюв2565100 0.0 1020127
09:00+9вюв3449100 0.0 1019475
12:00+13ююв3344100 0.0 10171131
15:00+14ююв4451100 0.0 10141466
18:00+8ююв3885100 0.1 1013362
21:00+7вюв41096100 1.9 1012451
21 мая, сб
сб2100:00+7вюв41097100 2.4 1010505
03:00+7в41195100 3.4 1010561
06:00+6в4119195 0.0 1010406
09:00+9в5106247 0.1 1009835
12:00+14в564486 0.0 10091857
15:00+15вюв4540100 0.0 10082193
18:00+14юв3651100 0.0 10071578
21:00+10в3669100 0.1 1007208